Location: Lussas
(44.6119°N, 4.4726°E)
Time: 16:02:41
(UTC+00:00)

Meteor PRIRODA - Pass Details

Date: 26 November 2020
Orbit: 489 x 510 km, 97.6° (Epoch: 28 January)

Event Time Altitude Azimuth Distance (km) Brightness Sun altitude
Rises 05:29:28 0° 6° (N) 2,630 7.2 -14.6°
Reaches altitude 10° 05:31:37 10° 0° (N) 1,741 6.2 -14.2°
Maximum altitude 05:35:13 45° 288° (WNW) 707 3.9 -13.6°
Drops below altitude 10° 05:38:47 10° 215° (SW) 1,729 6.2 -13.0°
Sets 05:40:55 0° 209° (SSW) 2,609 7.2 -12.6°
